Regional Weather Roundup
Issued by NWS Charleston, WV

Home | Current Version | Previous Version | Text Only | Print | Product List | Glossary On
Versions: 1 2 3 4 5 6 7 8 9 10 11 12 13 14 15 16 17 18 19 20 21 22 23 24 25 26 27 28 29 30 31 32 33 34 35 36 37 38 39 40 41 42 43 44 45 46 47 48 49 50
000
ASUS41 KRLX 102210
RWRRLX
West Virginia Regional Weather Roundup
National Weather Service Charleston WV
500 PM EST WED FEB 10 2016

Note: "fair" indicates few or no clouds below 12,000 feet with no
significant weather and/or obstructions to visibility.

WVZ003-102300-
Northern Panhandle of West Virginia

CITY           SKY/WX    TMP DP  RH WIND       PRES   REMARKS
WHEELING       CLOUDY    19  10  68 W14G24    29.86R WCI   6
$$

WVZ009-102300-
Northwest West Virginia

CITY           SKY/WX    TMP DP  RH WIND       PRES   REMARKS
PARKERSBURG    LGT SNOW  20  14  77 W9        29.99R VSB 3/4 WCI   9
$$

WVZ006-102300-
Western West Virginia

CITY           SKY/WX    TMP DP  RH WIND       PRES   REMARKS
HUNTINGTON     CLOUDY    20   8  60 W8G17     30.02R
$$

WVZ015-102300-
West Central West Virginia

CITY           SKY/WX    TMP DP  RH WIND       PRES   REMARKS
CHARLESTON     FLURRIES  21   8  57 W15G23    29.98R WCI   8
$$

WVZ022-031-102300-
North Central West Virginia

CITY           SKY/WX    TMP DP  RH WIND       PRES   REMARKS
CLARKSBURG     LGT SNOW  19  13  77 W9        29.90R WCI   8
MORGANTOWN     LGT SNOW  19  10  68 SW9G18    29.88R WCI   8
$$

WVZ025-035-042-045-102300-
Southern West Virginia

CITY           SKY/WX    TMP DP  RH WIND       PRES   REMARKS
BECKLEY        LGT SNOW  15   5  64 W16G25    29.86R WCI  -1
LOGAN          CLOUDY    18  10  73 W8        29.94S HAZE    WCI   7
BLUEFIELD      CLOUDY    14   5  67 W12       29.83R WCI   0
LEWISBURG      CLOUDY    19  12  74 NW8       29.85R HAZE    WCI   9
$$

WVZ047-102300-
Northern Mountains of West Virginia

CITY           SKY/WX    TMP DP  RH WIND       PRES   REMARKS
ELKINS         LGT SNOW  16   7  67 W7G18     29.85R WCI   6
$$

WVZ052-102300-
Eastern Panhandle of West Virginia

CITY           SKY/WX    TMP DP  RH WIND       PRES   REMARKS
MARTINSBURG    CLOUDY    25  10  53 W16G28    29.86R
PETERSBURG     CLOUDY    23   6  47 W6        29.89R
$$



USA.gov is the U.S. government's official web portal to all federal, state and local government web resources and services.